Ortahisar, Turkey

4:48 AM EEST on August 28, 2016 (GMT +0300)
Trabzon | | Change Station

Elev 102 ft 40.99 °N, 39.78 °E | Updated 28 minutes ago

Mostly Cloudy
Mostly Cloudy
79 °F
Feels Like 79 °F
N
5
Wind Variable Wind from SW

Today
High -- | Low -- °F
--% Chance of Precip.
Yesterday
High -- | Low -- °F
Precip. -- in
Pressure 29.95 in
Visibility 6.2 miles
Clouds Few 1900 ft
Mostly Cloudy 3300 ft
Dew Point 70 °F
Humidity 74%
Rainfall 0.00 in
Snow Depth Not available.
5:43 AM 6:59 PM
Waning Crescent, 20% visible
METAR LTCG 280120Z 23004KT 140V310 9999 FEW019 BKN033 26/21 Q1014 NOSIG RMK RWY29 24005KT 220V340
Pressure 29.95 in
Visibility 6.2 miles
Clouds Few 1900 ft
Mostly Cloudy 3300 ft
Dew Point 70 °F
Humidity 74%
Rainfall 0.00 in
Snow Depth Not available.
5:43 AM 6:59 PM
Waning Crescent, 20% visible
METAR LTCG 280120Z 23004KT 140V310 9999 FEW019 BKN033 26/21 Q1014 NOSIG RMK RWY29 24005KT 220V340

10-Day Weather Forecast

×

Almanac

Astronomy

Aug. 28, 2016 Rise Set
Actual Time
Civil Twilight
Nautical Twilight
Astronomical Twilight
Moon
Length of Visible Light
Length of Day
Tomorrow will be .
, % of the Moon is Illuminated

Today's Extremes

Country Highs Country Lows

Community

WunderPhotos

Upload Photos

1,935,489 photos uploaded!

WunderBlog® & News

Nearby

Air Quality

  Air Quality AQ Index Pollutant
Not available.

Snow Depth

Station Depth Elevation

Earthquake Activity

City Distance Mag. Time & Date
Minimum magnitude displayed is 2.5.

Coastal Water Temperatures

Place Temperature

Stations

Nearby Weather Stations

Station Location Temp. Windchill Dew Point Humidity Wind Precip. Elev Updated Type